Location: Arrodets-la-Barthe
(43.0306°N, 0.2829°E)
Time: 11:26:44
(UTC+00:00)

Cosmos 2278 - Pass Details

Date: 03 June 2022
Orbit: 838 x 854 km, 71.1° (Epoch: 01 July)

Event Time Altitude Azimuth Distance (km) Brightness Sun altitude
Rises 03:02:05 0° 348° (NNW) 3,427 7.4 -12.0°
Reaches altitude 10° 03:07:00 10° 26° (NNE) 2,490 7.4 -11.4°
Maximum altitude 03:08:19 11° 39° (NE) 2,436 7.6 -11.2°
Drops below altitude 10° 03:09:39 10° 53° (NE) 2,489 7.7 -11.1°
Sets 03:14:32 0° 90° (E) 3,421 7.6 -10.4°
